Buffalo, NY

11:39 PM EST on December 14, 2019 (GMT -0500)
Buffalo Niagara International

Weather History for KBUF - July, 2019

Change the Weather History Date:

Monday, July 22, 2019

  Actual Average Record
Temperature  
Mean Temperature 72 °F 71 °F  
Max Temperature 78 °F 80 °F 95 °F (2011)
Min Temperature 66 °F 63 °F 49 °F (1992)
Degree Days  
Heating Degree Days 0 0  
Month to date heating degree days 0 2  
Since 1 June heating degree days 62 66  
Since 1 July heating degree days 0 2  
Cooling Degree Days 7 7  
Month to date cooling degree days 205 143  
Year to date cooling degree days 288 272  
Since 1 June cooling degree days 280 246  
Growing Degree Days 22 (Base 50)    
Moisture  
Dew Point 60 °F    
Average Humidity 66    
Maximum Humidity 81    
Minimum Humidity 50    
Precipitation  
Precipitation 0.01 in 0.10 in 2.41 in (1927)
Month to date precipitation 1.09 2.22  
Year to date precipitation 24.01 20.89  
Snow  
Snow 0.00 in 0.00 in 0.00 in ()
Month to date snowfall 0.0 0.0  
Since 1 June snowfall 0.0 0.0  
Since 1 July snowfall 0.0 0.0  
Snow Depth 0.00 in    
Sea Level Pressure  
Sea Level Pressure 29.88 in    
Wind  
Wind Speed 5 mph (NE)    
Max Wind Speed 12 mph    
Max Gust Speed 13 mph    
Visibility 10 miles    
Events Rain    
T = Trace of Precipitation, MM = Missing Value Source: NWS Daily Summary

Daily Weather History Graph

Daily Weather History Graph

Search for Another Location

Airport or City:

Astronomy

Jul. 22, 2019 Rise Set
Actual Time 5:55 AM EDT 8:46 PM EDT
Civil Twilight 5:22 AM EDT 9:19 PM EDT
Nautical Twilight 4:40 AM EDT 10:01 PM EDT
Astronomical Twilight 3:50 AM EDT 10:50 PM EDT
Moon 11:58 PM EDT (7/22) 11:17 AM EDT (7/22)
Length of Visible Light 15h 57m
Length of Day
14h 50m
Waning Gibbous, 72% of the Moon is Illuminated
Jul 22
Waning Gibbous
Jul 24
Last Quarter
Jul 31
New
Aug 7
First Quarter
Aug 15
Full

Hourly Weather History & Observations

Time (EDT) Temp. Dew Point Humidity Pressure Visibility Wind Dir Wind Speed Gust Speed Precip Events Conditions
12:54 AM 72.0 °F 59.0 °F 64% 29.91 in 10.0 mi Calm Calm - N/A   Mostly Cloudy
1:54 AM 70.0 °F 59.0 °F 68% 29.91 in 10.0 mi NNW 4.6 mph - N/A   Overcast
2:54 AM 69.1 °F 59.0 °F 70% 29.90 in 10.0 mi Calm Calm - N/A   Overcast
3:54 AM 69.1 °F 59.0 °F 70% 29.89 in 10.0 mi Calm Calm - N/A   Overcast
4:54 AM 69.1 °F 59.0 °F 70% 29.88 in 10.0 mi Calm Calm - N/A   Overcast
5:54 AM 66.9 °F 62.1 °F 84% 29.88 in 10.0 mi NNW 3.5 mph - 0.00 in Rain Light Rain
6:54 AM 66.0 °F 61.0 °F 84% 29.89 in 10.0 mi North 3.5 mph - 0.01 in Rain Light Rain
7:54 AM 66.0 °F 61.0 °F 84% 29.89 in 10.0 mi East 5.8 mph - 0.00 in   Overcast
8:54 AM 66.9 °F 61.0 °F 81% 29.89 in 10.0 mi ESE 6.9 mph - 0.00 in Rain Light Rain
9:54 AM 68.0 °F 62.1 °F 81% 29.89 in 10.0 mi ESE 8.1 mph - 0.00 in Rain Light Rain
10:54 AM 69.1 °F 60.1 °F 73% 29.89 in 10.0 mi ESE 5.8 mph - 0.00 in   Overcast
11:54 AM 70.0 °F 59.0 °F 68% 29.88 in 10.0 mi Variable 4.6 mph - 0.00 in   Mostly Cloudy
12:54 PM 70.0 °F 60.1 °F 71% 29.88 in 10.0 mi SE 6.9 mph - N/A   Mostly Cloudy
1:54 PM 72.0 °F 60.1 °F 66% 29.86 in 10.0 mi ENE 5.8 mph - N/A   Mostly Cloudy
2:54 PM 73.0 °F 60.1 °F 64% 29.86 in 10.0 mi NNW 4.6 mph - N/A   Mostly Cloudy
3:54 PM 73.9 °F 57.0 °F 55% 29.84 in 10.0 mi Variable 3.5 mph - N/A   Mostly Cloudy
4:54 PM 75.9 °F 57.9 °F 54% 29.83 in 10.0 mi ENE 4.6 mph - N/A   Mostly Cloudy
5:54 PM 75.0 °F 55.9 °F 51% 29.83 in 10.0 mi North 6.9 mph - N/A   Mostly Cloudy
6:54 PM 73.0 °F 60.1 °F 64% 29.84 in 10.0 mi NNE 8.1 mph - N/A   Mostly Cloudy
7:54 PM 72.0 °F 60.1 °F 66% 29.86 in 10.0 mi NE 5.8 mph - N/A   Mostly Cloudy
8:54 PM 70.0 °F 61.0 °F 73% 29.87 in 10.0 mi NNE 6.9 mph - N/A   Mostly Cloudy
9:54 PM 69.1 °F 60.1 °F 73% 29.88 in 10.0 mi Calm Calm - N/A   Overcast
10:54 PM 69.1 °F 60.1 °F 73% 29.88 in 10.0 mi North 5.8 mph - N/A   Mostly Cloudy
11:54 PM 68.0 °F 59.0 °F 73% 29.88 in 10.0 mi North 5.8 mph - N/A   Mostly Cloudy